sat.trackr.live / text

‹ back to catalog

QIANFAN-161

NORAD 69120 · 2026-108S

PAYLOAD ACTIVE UNKNOWN

§ Identity

Operator
Country
PRC
Launch date
2026-05-17
Launch site
WSC
Launch vehicle
Mass (kg)
RCS (m²)

External: N2YO · Heavens-Above · Gunter

§ Orbital elements

Epoch: 2026-09-20T03:35:35.552256Z

Period
106.59 min
Inclination
89.0205°
Eccentricity
0.0001850
Mean motion
13.51022292 rev/d
Perigee alt
1,067.1 km
Apogee alt
1,069.9 km
Semi-major
7,446.6 km
B*
1.7402e-4
RAAN
12.4695°
Arg perigee
105.3640°
Mean anomaly
254.7715°
Rev number
1,732

§ Raw data

QIANFAN-1611 69120U 26108S   26263.14971704  .00000124  00000+0  17402-3 0  99902 69120  89.0205  12.4695 0001850 105.3640 254.7715 13.51022292 17325

JSON: /api/v1/satellites/69120 · /tle

For live sub-satellite position, see the globe view (requires WebGL).

§ Visibility from observer

Set your observer location to see the next 7 days of passes ≥ 10°. The values pass through the URL so the page stays shareable.

No JS? Fill the form by hand. The geolocation button needs JavaScript.